Flag for U.S.A. Weather past 2 weeks in Lynchburg, Virginia, U.S.A.

Now
44 °F

Mostly cloudy.


Feels Like: 40 °F
Forecast: 36 / 43 °F
Wind: 7 mph from South

Location: Lynchburg Regional Airport

Current Time: Jan 25, 2015 at 10:25:41 PM

Latest Report: Jan 25, 2015 at 9:54 PM


Visibility: 10 mi

Pressure: 29.79 "Hg

Humidity: 63%

Dew point: 32 °F

Location of LynchburgLocation

Historic Weather in Lynchburg — Graph

°F

Lynchburg temperature yesterday

Maximum temperature yesterday: 44 °F (at 1:54 PM)
Minimum temperature yesterday: 32 °F (at 12:54 AM)
Average temperature yesterday: 36 °F

Past Weeks' High & Low Weather Summary

 TemperatureHumidityPressure
High59 °F (Jan 20, 2:54 PM)100% (Jan 12, 5:54 AM)30.66 "Hg (Jan 12, 5:54 AM)
Low10 °F (Jan 11, 6:54 AM)25% (Jan 11, 3:54 PM)29.56 "Hg (Jan 24, 11:54 AM)
Average36 °F72%30.14 "Hg
* Reported Jan 10 8:54 PM — Jan 25 8:54 PM, Lynchburg, Weather by CustomWeather, © 2014

Note: Actual official high and low records may vary slightly from our data, if they occured in-between our weather recording intervals... More about our weather records

Advertising

Lynchburg weather history for previous 24 hours

 ConditionsComfort  
Time TempWeatherWind HumidityBarometerVisibility
8:54 PM
Jan 25
44 °FPassing clouds.6 mph63%29.81 "Hg10 mi
7:54 PM42 °FOvercast.5 mph68%29.82 "Hg10 mi
6:54 PM46 °FClear.5 mph56%29.81 "Hg10 mi
5:54 PM46 °FClear.5 mph54%29.80 "Hg10 mi
4:54 PM50 °FSunny.6 mph48%29.79 "Hg10 mi
3:54 PM50 °FSunny.No wind48%29.81 "Hg10 mi
2:54 PM50 °FSunny.7 mph50%29.80 "Hg10 mi
1:54 PM49 °FSunny.9 mph52%29.83 "Hg10 mi
12:54 PM47 °FSunny.6 mph54%29.86 "Hg10 mi
11:54 AM45 °FSunny.12 mph63%29.88 "Hg10 mi
10:54 AM41 °FSunny.6 mph70%29.90 "Hg10 mi
9:54 AM37 °FSunny.6 mph73%29.90 "Hg10 mi
8:54 AM36 °FSunny.7 mph73%29.90 "Hg10 mi
7:54 AM30 °FSunny.3 mph85%29.88 "Hg10 mi
6:54 AM34 °FClear.3 mph73%29.88 "Hg10 mi
5:54 AM35 °FPassing clouds.5 mph70%29.86 "Hg10 mi
4:54 AM35 °FPassing clouds.6 mph70%29.86 "Hg10 mi
3:54 AM35 °FPassing clouds.6 mph70%29.84 "Hg10 mi
2:54 AM36 °FClear.5 mph67%29.81 "Hg10 mi
1:54 AM33 °FPassing clouds.7 mph75%29.79 "Hg10 mi
12:54 AM38 °FPassing clouds.8 mph63%29.77 "Hg10 mi
11:54 PM
Jan 24
38 °FMostly cloudy.12 mph63%29.76 "Hg10 mi
10:54 PM37 °FOvercast.7 mph65%29.75 "Hg10 mi
Weather by CustomWeather, © 2014

See weather overviewHow to use our weather pages